AEE46T LGSR-LCLK

Flight info

Callsign AEE46T
Flight time 1h 4m
Altitude 37000
Route ASTIS UM601 EVENO M601 BONEK
Aircraft A321/M-SDE3FGHIRWY/LB1

Departure

Time 2026-05-08 11:02
Airport Santorini International Airport (LGSR)

Arrival

Time 2026-05-08 12:06
Airport Larnaca International Airport (LCLK)
Time Latitude Longitude Altitude Speed Heading
2026-05-08 10:44 36.40351 25.47383 109 ft 0 kts 252°
2026-05-08 10:52 36.40352 25.47389 108 ft 3 kts 252°
2026-05-08 10:52 36.40358 25.47410 109 ft 2 kts 255°
2026-05-08 10:52 36.40357 25.47432 108 ft 3 kts 317°
2026-05-08 10:53 36.40342 25.47445 108 ft 3 kts 329°
2026-05-08 10:53 36.40327 25.47453 109 ft 0 kts 347°
2026-05-08 10:54 36.40354 25.47442 111 ft 10 kts 338°
2026-05-08 10:54 36.40415 25.47460 111 ft 13 kts 58°
2026-05-08 10:55 36.40321 25.47558 109 ft 27 kts 159°
2026-05-08 10:55 36.40127 25.47649 101 ft 31 kts 158°
2026-05-08 10:55 36.39916 25.47752 94 ft 34 kts 159°
2026-05-08 10:55 36.39765 25.47829 89 ft 12 kts 128°
2026-05-08 10:56 36.39775 25.47936 86 ft 13 kts 69°
2026-05-08 10:56 36.39889 25.47930 92 ft 40 kts 340°
2026-05-08 10:56 36.40380 25.47698 109 ft 97 kts 339°
2026-05-08 10:56 36.40723 25.47537 120 ft 34 kts 339°
2026-05-08 10:57 36.40806 25.47498 121 ft 10 kts 339°
2026-05-08 10:57 36.40847 25.47453 124 ft 7 kts 268°
2026-05-08 10:57 36.40795 25.47343 124 ft 9 kts 186°
2026-05-08 10:58 36.40715 25.47374 122 ft 15 kts 159°
2026-05-08 10:58 36.40607 25.47424 118 ft 18 kts 160°
2026-05-08 10:58 36.40473 25.47485 114 ft 22 kts 160°
2026-05-08 10:58 36.40320 25.47559 108 ft 26 kts 157°
2026-05-08 10:59 36.40143 25.47643 102 ft 29 kts 159°
2026-05-08 10:59 36.39944 25.47737 96 ft 32 kts 160°
2026-05-08 10:59 36.39726 25.47838 88 ft 35 kts 158°
2026-05-08 10:59 36.39489 25.47950 71 ft 38 kts 159°
2026-05-08 11:00 36.39264 25.48055 63 ft 20 kts 159°
2026-05-08 11:00 36.39119 25.48123 58 ft 24 kts 159°
2026-05-08 11:00 36.39009 25.48215 55 ft 17 kts 90°
2026-05-08 11:00 36.39028 25.48299 52 ft 10 kts 62°
2026-05-08 11:01 36.39085 25.48307 56 ft 10 kts 337°
2026-05-08 11:01 36.39228 25.48239 59 ft 50 kts 339°
2026-05-08 11:01 36.39784 25.47976 87 ft 118 kts 340°
2026-05-08 11:01 36.40718 25.47539 267 ft 157 kts 338°
2026-05-08 11:02 36.41759 25.47057 899 ft 164 kts 339°
2026-05-08 11:02 36.44052 25.47162 2321 ft 186 kts 28°
2026-05-08 11:02 36.45000 25.48322 3144 ft 199 kts 57°
2026-05-08 11:03 36.45621 25.49826 4036 ft 192 kts 61°
2026-05-08 11:03 36.46275 25.51358 4308 ft 211 kts 60°
2026-05-08 11:03 36.47022 25.53030 4494 ft 231 kts 60°
2026-05-08 11:03 36.47835 25.54816 4823 ft 240 kts 59°
2026-05-08 11:04 36.48667 25.56627 5250 ft 242 kts 59°
2026-05-08 11:04 36.49516 25.58462 5659 ft 246 kts 60°
2026-05-08 11:04 36.50369 25.60299 5972 ft 251 kts 59°
2026-05-08 11:04 36.51244 25.62178 6010 ft 251 kts 59°
2026-05-08 11:05 36.52119 25.64062 6009 ft 251 kts 59°
2026-05-08 11:05 36.52991 25.65935 6010 ft 248 kts 59°
2026-05-08 11:05 36.53858 25.67797 6011 ft 248 kts 59°
2026-05-08 11:05 36.54710 25.69628 6012 ft 247 kts 59°
2026-05-08 11:06 36.55578 25.71502 6006 ft 256 kts 59°
2026-05-08 11:06 36.56493 25.73476 6413 ft 266 kts 59°
2026-05-08 11:06 36.57423 25.75479 7130 ft 268 kts 59°
2026-05-08 11:06 36.58364 25.77507 7817 ft 272 kts 60°
2026-05-08 11:07 36.59314 25.79557 8495 ft 275 kts 60°
2026-05-08 11:07 36.60166 25.81671 9144 ft 278 kts 71°
2026-05-08 11:07 36.60590 25.84045 9727 ft 287 kts 87°
2026-05-08 11:07 36.60492 25.86589 10087 ft 300 kts 101°
2026-05-08 11:08 36.60187 25.89227 10371 ft 318 kts 99°
2026-05-08 11:08 36.59872 25.92052 10497 ft 340 kts 99°
2026-05-08 11:08 36.59553 25.95008 10777 ft 354 kts 98°
2026-05-08 11:08 36.59232 25.98062 11351 ft 358 kts 99°
2026-05-08 11:09 36.58908 26.01167 11917 ft 362 kts 98°
2026-05-08 11:09 36.58580 26.04297 12468 ft 367 kts 98°
2026-05-08 11:09 36.58249 26.07436 13013 ft 372 kts 98°
2026-05-08 11:09 36.57905 26.10659 13556 ft 377 kts 98°
2026-05-08 11:10 36.57555 26.13916 14075 ft 382 kts 98°
2026-05-08 11:10 36.57194 26.17234 14567 ft 387 kts 98°
2026-05-08 11:10 36.56831 26.20565 15068 ft 391 kts 98°
2026-05-08 11:10 36.56466 26.23902 15572 ft 394 kts 97°
2026-05-08 11:11 36.56086 26.27302 16116 ft 397 kts 98°
2026-05-08 11:11 36.55693 26.30712 16716 ft 398 kts 97°
2026-05-08 11:11 36.55293 26.34143 17225 ft 401 kts 97°
2026-05-08 11:11 36.54898 26.37556 17716 ft 405 kts 97°
2026-05-08 11:12 36.54494 26.41044 18183 ft 408 kts 96°
2026-05-08 11:12 36.54086 26.44569 18626 ft 412 kts 96°
2026-05-08 11:12 36.53674 26.48115 19034 ft 416 kts 96°
2026-05-08 11:12 36.53260 26.51689 19447 ft 419 kts 96°
2026-05-08 11:13 36.52850 26.55244 19838 ft 423 kts 96°
2026-05-08 11:13 36.52430 26.58883 20268 ft 425 kts 96°
2026-05-08 11:13 36.52004 26.62535 20671 ft 428 kts 96°
2026-05-08 11:13 36.51570 26.66219 21068 ft 431 kts 97°
2026-05-08 11:14 36.51132 26.69921 21460 ft 434 kts 97°
2026-05-08 11:14 36.50693 26.73619 21839 ft 437 kts 97°
2026-05-08 11:14 36.50252 26.77370 22215 ft 440 kts 97°
2026-05-08 11:14 36.49806 26.81152 22585 ft 443 kts 97°
2026-05-08 11:15 36.49354 26.84961 22947 ft 446 kts 97°
2026-05-08 11:15 36.48894 26.88801 23312 ft 449 kts 97°
2026-05-08 11:15 36.48431 26.92652 23686 ft 452 kts 97°
2026-05-08 11:15 36.47961 26.96524 24001 ft 455 kts 97°
2026-05-08 11:16 36.47483 27.00429 24302 ft 457 kts 97°
2026-05-08 11:16 36.47009 27.04294 24600 ft 460 kts 97°
2026-05-08 11:16 36.46526 27.08243 24903 ft 463 kts 97°
2026-05-08 11:16 36.46042 27.12210 25205 ft 465 kts 97°
2026-05-08 11:17 36.45556 27.16222 25504 ft 468 kts 97°
2026-05-08 11:17 36.45070 27.20232 25791 ft 471 kts 97°
2026-05-08 11:17 36.44590 27.24218 26070 ft 474 kts 97°
2026-05-08 11:17 36.44100 27.28295 26356 ft 477 kts 97°
2026-05-08 11:18 36.43604 27.32380 26647 ft 479 kts 97°
2026-05-08 11:18 36.43102 27.36490 26905 ft 482 kts 97°
2026-05-08 11:18 36.42591 27.40619 27185 ft 484 kts 98°
2026-05-08 11:18 36.42075 27.44761 27462 ft 487 kts 98°
2026-05-08 11:19 36.41559 27.48879 27714 ft 490 kts 97°
2026-05-08 11:19 36.41035 27.53064 27980 ft 492 kts 97°
2026-05-08 11:19 36.40506 27.57282 28254 ft 495 kts 97°
2026-05-08 11:19 36.39975 27.61513 28530 ft 497 kts 97°
2026-05-08 11:20 36.39437 27.65783 28775 ft 500 kts 97°
2026-05-08 11:20 36.38895 27.70068 29040 ft 502 kts 97°
2026-05-08 11:20 36.38356 27.74333 29293 ft 505 kts 98°
2026-05-08 11:20 36.37805 27.78660 29550 ft 507 kts 98°
2026-05-08 11:21 36.37249 27.83004 29806 ft 510 kts 98°
2026-05-08 11:21 36.36695 27.87305 30054 ft 512 kts 98°
2026-05-08 11:21 36.36131 27.91678 30275 ft 514 kts 98°
2026-05-08 11:21 36.35562 27.96077 30499 ft 517 kts 98°
2026-05-08 11:22 36.34987 28.00507 30710 ft 518 kts 98°
2026-05-08 11:22 36.34411 28.04933 30904 ft 520 kts 98°
2026-05-08 11:22 36.33678 28.09347 31087 ft 523 kts 105°
2026-05-08 11:22 36.32614 28.13619 31253 ft 524 kts 107°
2026-05-08 11:23 36.31508 28.17954 31464 ft 525 kts 107°
2026-05-08 11:23 36.30405 28.22276 31711 ft 525 kts 107°
2026-05-08 11:23 36.29301 28.26597 31943 ft 525 kts 107°
2026-05-08 11:23 36.28191 28.30927 32172 ft 525 kts 107°
2026-05-08 11:24 36.27092 28.35193 32394 ft 526 kts 107°
2026-05-08 11:24 36.25977 28.39513 32613 ft 526 kts 107°
2026-05-08 11:24 36.24862 28.43843 32849 ft 526 kts 107°
2026-05-08 11:24 36.23748 28.48174 33072 ft 527 kts 107°
2026-05-08 11:25 36.22634 28.52495 33292 ft 527 kts 107°
2026-05-08 11:25 36.21512 28.56827 33509 ft 528 kts 107°
2026-05-08 11:25 36.20399 28.61106 33726 ft 528 kts 107°
2026-05-08 11:25 36.19268 28.65442 33942 ft 528 kts 107°
2026-05-08 11:26 36.18135 28.69777 34164 ft 529 kts 107°
2026-05-08 11:26 36.16997 28.74119 34377 ft 528 kts 107°
2026-05-08 11:26 36.15863 28.78437 34593 ft 528 kts 107°
2026-05-08 11:26 36.14726 28.82759 34816 ft 527 kts 107°
2026-05-08 11:27 36.13591 28.87067 35050 ft 526 kts 107°
2026-05-08 11:27 36.12468 28.91325 35282 ft 525 kts 107°
2026-05-08 11:27 36.11337 28.95624 35511 ft 524 kts 107°
2026-05-08 11:27 36.10209 28.99914 35753 ft 522 kts 106°
2026-05-08 11:28 36.09084 29.04184 35990 ft 521 kts 106°
2026-05-08 11:28 36.07956 29.08445 36212 ft 520 kts 106°
2026-05-08 11:28 36.06840 29.12656 36438 ft 519 kts 106°
2026-05-08 11:28 36.05712 29.16892 36651 ft 518 kts 106°
2026-05-08 11:29 36.04582 29.21128 36849 ft 517 kts 106°
2026-05-08 11:29 36.03834 29.23926 36991 ft 517 kts 106°
2026-05-08 11:29 36.02707 29.28149 37158 ft 517 kts 106°
2026-05-08 11:30 36.00463 29.36533 37176 ft 516 kts 106°
2026-05-08 11:30 35.98207 29.44955 37177 ft 515 kts 106°
2026-05-08 11:31 35.95937 29.53376 37171 ft 515 kts 106°
2026-05-08 11:31 35.93674 29.61736 37172 ft 515 kts 105°
2026-05-08 11:32 35.91423 29.70115 37175 ft 516 kts 105°
2026-05-08 11:32 35.89170 29.78505 37181 ft 516 kts 105°
2026-05-08 11:33 35.86889 29.86930 37188 ft 516 kts 105°
2026-05-08 11:33 35.84597 29.95327 37184 ft 516 kts 105°
2026-05-08 11:34 35.82337 30.03689 37184 ft 516 kts 104°
2026-05-08 11:34 35.80216 30.12144 37188 ft 516 kts 103°
2026-05-08 11:35 35.78141 30.20618 37188 ft 515 kts 103°
2026-05-08 11:35 35.76041 30.29011 37184 ft 515 kts 104°
2026-05-08 11:36 35.73890 30.37446 37183 ft 515 kts 104°
2026-05-08 11:36 35.71746 30.45823 37184 ft 515 kts 104°
2026-05-08 11:37 35.69584 30.54247 37180 ft 515 kts 104°
2026-05-08 11:37 35.67423 30.62674 37178 ft 515 kts 104°
2026-05-08 11:38 35.65272 30.71037 37178 ft 515 kts 104°
2026-05-08 11:38 35.63098 30.79442 37175 ft 515 kts 104°
2026-05-08 11:39 35.60938 30.87798 37178 ft 515 kts 104°
2026-05-08 11:39 35.58809 30.96238 37184 ft 515 kts 103°
2026-05-08 11:40 35.56696 31.04666 37177 ft 515 kts 103°
2026-05-08 11:40 35.54576 31.13037 37174 ft 515 kts 103°
2026-05-08 11:41 35.52429 31.21434 37171 ft 515 kts 103°
2026-05-08 11:41 35.50274 31.29841 37177 ft 515 kts 103°
2026-05-08 11:42 35.48130 31.38196 37112 ft 505 kts 103°
2026-05-08 11:42 35.47091 31.42204 37143 ft 492 kts 103°
2026-05-08 11:42 35.46059 31.46181 37137 ft 487 kts 103°
2026-05-08 11:43 35.44002 31.54179 37143 ft 494 kts 102°
2026-05-08 11:43 35.41926 31.62269 37143 ft 503 kts 103°
2026-05-08 11:44 35.39784 31.70544 37132 ft 512 kts 103°
2026-05-08 11:44 35.37595 31.78927 37136 ft 520 kts 103°
2026-05-08 11:45 35.35376 31.87367 37132 ft 526 kts 103°
2026-05-08 11:45 35.33120 31.95922 37134 ft 527 kts 103°
2026-05-08 11:46 35.30864 32.04489 36932 ft 524 kts 103°
2026-05-08 11:46 35.29762 32.08671 36446 ft 520 kts 103°
2026-05-08 11:46 35.28665 32.12868 35959 ft 515 kts 103°
2026-05-08 11:46 35.27570 32.17083 34921 ft 523 kts 103°
2026-05-08 11:47 35.26462 32.21366 33894 ft 531 kts 103°
2026-05-08 11:47 35.25347 32.25654 32923 ft 534 kts 103°
2026-05-08 11:47 35.24213 32.29982 32071 ft 533 kts 103°
2026-05-08 11:47 35.23073 32.34310 31248 ft 532 kts 104°
2026-05-08 11:48 35.21937 32.38608 30436 ft 530 kts 104°
2026-05-08 11:48 35.20815 32.42835 29583 ft 528 kts 104°
2026-05-08 11:48 35.19680 32.47105 29224 ft 527 kts 105°
2026-05-08 11:48 35.18543 32.51385 29077 ft 528 kts 105°
2026-05-08 11:49 35.17406 32.55678 29129 ft 529 kts 104°
2026-05-08 11:49 35.15149 32.64211 29121 ft 529 kts 105°
2026-05-08 11:50 35.12865 32.72785 29116 ft 530 kts 105°
2026-05-08 11:50 35.10580 32.81306 29118 ft 530 kts 105°
2026-05-08 11:51 35.08277 32.89864 29137 ft 530 kts 105°
2026-05-08 11:51 35.07122 32.94149 29035 ft 527 kts 105°
2026-05-08 11:51 35.05982 32.98295 27594 ft 517 kts 106°
2026-05-08 11:51 35.04779 33.02516 26460 ft 522 kts 107°
2026-05-08 11:52 35.03578 33.06617 26247 ft 504 kts 107°
2026-05-08 11:52 35.02397 33.10608 25773 ft 495 kts 107°
2026-05-08 11:52 35.01254 33.14491 25196 ft 488 kts 107°
2026-05-08 11:52 35.00125 33.18372 24606 ft 482 kts 107°
2026-05-08 11:53 34.99014 33.22225 24012 ft 477 kts 107°
2026-05-08 11:53 34.97920 33.26029 23399 ft 472 kts 107°
2026-05-08 11:53 34.96840 33.29784 22713 ft 466 kts 108°
2026-05-08 11:53 34.95784 33.33439 22051 ft 461 kts 108°
2026-05-08 11:54 34.94726 33.37076 21478 ft 442 kts 108°
2026-05-08 11:54 34.93728 33.40484 21193 ft 411 kts 108°
2026-05-08 11:54 34.92794 33.43670 20753 ft 389 kts 108°
2026-05-08 11:54 34.91710 33.46648 19950 ft 380 kts 123°
2026-05-08 11:55 34.89974 33.48963 19155 ft 370 kts 145°
2026-05-08 11:55 34.87725 33.50373 18344 ft 359 kts 168°
2026-05-08 11:55 34.85325 33.50648 17654 ft 338 kts 191°
2026-05-08 11:55 34.83154 33.49863 16886 ft 322 kts 214°
2026-05-08 11:56 34.81466 33.48180 16062 ft 309 kts 232°
2026-05-08 11:56 34.80103 33.46165 15137 ft 307 kts 235°
2026-05-08 11:56 34.78764 33.44067 13936 ft 318 kts 235°
2026-05-08 11:56 34.77413 33.41898 12640 ft 324 kts 235°
2026-05-08 11:57 34.76079 33.39704 11401 ft 329 kts 235°
2026-05-08 11:57 34.74730 33.37439 10183 ft 332 kts 236°
2026-05-08 11:57 34.73393 33.35146 8921 ft 333 kts 238°
2026-05-08 11:57 34.72499 33.32568 7649 ft 329 kts 261°
2026-05-08 11:58 34.72171 33.29827 6447 ft 328 kts 263°
2026-05-08 11:58 34.71464 33.27201 5180 ft 330 kts 241°
2026-05-08 11:58 34.69961 33.25102 3965 ft 330 kts 216°
2026-05-08 11:59 34.65981 33.24118 3762 ft 280 kts 167°
2026-05-08 11:59 34.64200 33.24962 3488 ft 272 kts 145°
2026-05-08 11:59 34.62865 33.26519 3217 ft 263 kts 118°
2026-05-08 11:59 34.62337 33.28595 3029 ft 258 kts 89°
2026-05-08 12:00 34.62737 33.30679 2996 ft 255 kts 59°
2026-05-08 12:00 34.63825 33.32334 2992 ft 255 kts 46°
2026-05-08 12:00 34.65056 33.33895 2997 ft 256 kts 45°
2026-05-08 12:00 34.66302 33.35448 3000 ft 255 kts 45°
2026-05-08 12:01 34.67550 33.36993 2991 ft 255 kts 46°
2026-05-08 12:01 34.68763 33.38575 2989 ft 256 kts 49°
2026-05-08 12:01 34.69919 33.40220 2988 ft 256 kts 50°
2026-05-08 12:01 34.71056 33.41890 2988 ft 257 kts 50°
2026-05-08 12:02 34.72192 33.43568 2986 ft 258 kts 51°
2026-05-08 12:02 34.73334 33.45243 2976 ft 258 kts 49°
2026-05-08 12:02 34.74544 33.46847 2770 ft 256 kts 46°
2026-05-08 12:02 34.75786 33.48373 2556 ft 251 kts 45°
2026-05-08 12:03 34.77013 33.49841 2350 ft 243 kts 45°
2026-05-08 12:03 34.78179 33.51230 2154 ft 226 kts 45°
2026-05-08 12:03 34.79285 33.52550 1993 ft 218 kts 45°
2026-05-08 12:03 34.80316 33.53787 1720 ft 199 kts 46°
2026-05-08 12:04 34.81243 33.54908 1461 ft 178 kts 46°
2026-05-08 12:04 34.82075 33.55917 1223 ft 161 kts 48°
2026-05-08 12:04 34.82838 33.56841 1002 ft 151 kts 50°
2026-05-08 12:04 34.83563 33.57737 785 ft 148 kts 50°
2026-05-08 12:05 34.84273 33.58637 625 ft 148 kts 48°
2026-05-08 12:05 34.84991 33.59514 456 ft 146 kts 46°
2026-05-08 12:05 34.85717 33.60382 265 ft 144 kts 47°
2026-05-08 12:05 34.86430 33.61239 57 ft 143 kts 50°
2026-05-08 12:06 34.87075 33.62030 22 ft 113 kts 46°
2026-05-08 12:06 34.87507 33.62558 17 ft 63 kts 45°
2026-05-08 12:06 34.87708 33.62801 21 ft 29 kts 44°
2026-05-08 12:06 34.87794 33.62903 21 ft 12 kts 44°
2026-05-08 12:07 34.87852 33.62910 21 ft 8 kts 323°
2026-05-08 12:07 34.87897 33.62861 22 ft 9 kts 316°
2026-05-08 12:07 34.87946 33.62804 21 ft 11 kts 315°
2026-05-08 12:07 34.87943 33.62723 22 ft 3 kts 226°
2026-05-08 12:08 34.87942 33.62722 21 ft 0 kts 224°
2026-05-08 12:08 34.87941 33.62721 21 ft 1 kts 224°
2026-05-08 12:08 34.87885 33.62654 22 ft 25 kts 225°
2026-05-08 12:09 34.87738 33.62476 19 ft 31 kts 225°
2026-05-08 12:09 34.87583 33.62289 16 ft 32 kts 225°
2026-05-08 12:09 34.87427 33.62097 19 ft 32 kts 225°
2026-05-08 12:09 34.87273 33.61908 22 ft 31 kts 225°
2026-05-08 12:10 34.87123 33.61724 21 ft 24 kts 225°
2026-05-08 12:10 34.87001 33.61575 19 ft 26 kts 225°
2026-05-08 12:10 34.86920 33.61476 18 ft 11 kts 225°
2026-05-08 12:10 34.86880 33.61398 18 ft 12 kts 277°
2026-05-08 12:11 34.86937 33.61317 19 ft 12 kts 314°
2026-05-08 12:11 34.86995 33.61246 20 ft 12 kts 315°
2026-05-08 12:11 34.87036 33.61195 20 ft 6 kts 315°
2026-05-08 12:11 34.87069 33.61156 20 ft 2 kts 315°
2026-05-08 12:12 34.87077 33.61146 20 ft 0 kts 315°
2026-05-08 12:12 34.87081 33.61135 23 ft 4 kts 287°
2026-05-08 12:12 34.87051 33.61083 20 ft 5 kts 236°
2026-05-08 12:12 34.87036 33.61054 20 ft 3 kts 235°
2026-05-08 12:13 34.87034 33.61051 22 ft 1 kts 235°
2026-05-08 12:13 34.87033 33.61049 22 ft 0 kts 235°